Find Starlink 37323

NORAD ID: 69516 Int'l Des: 2026-133 Owner: SPXS Country: US Constellation: starlink operational
LEOCIRCULAR

現在のビュー

3D地球を読み込み中...

About Starlink 37323

Starlink 37323 (NORAD 69516) is a starlink constellation satellite (v2 mini) launched Jun 11, 2026 by SPXS of US. It operates in LEO, CIRCULAR orbit with a mass of 575.00 kg.

次回通過

Passes for default location (London). Set your location on the main map for personalized predictions.

高度履歴

Loading altitude history...

軌道要素

1 69516U 26133J 26235.75673712 .00030568 00000-0 91161-3 0 9991
2 69516 53.1605 359.4802 0001911 223.1537 136.9316 15.34418201 12499
Epoch: Aug 23, 2026 • Age: 17 hours

現在のステータス

高度 474.5 km
遠地点 / 近地点 N/A
速度 7.63 km/s
衛星直下点 -37.30°S, 178.32°W
打ち上げ日 Jun 11, 2026
運用期間 0.1 years
タイプ internet

技術仕様

分類 Payload
質量 575.00 kg
乾燥質量 530.00 kg
総質量 575.00 kg
長さ 0.30 m
直径 4.10 m
スパン 29.00 m
形状 Box + pan
製造者 SPXS
バスタイプ Starlink V2MO
フェーズステータス In Orbit
所有者/国 SPXS/US

Most Searched